Weather in Kalino

Russia / Arkhangel'skaya Oblast'     65°47′06″N   46°15′46″E
temp.,
°C
wind,
m/s
gust,
m/s
humid.,
%
clouds,
%
prec.,
mm/h
press.,
hPa
HPBL,
m
28 november, sun
sun2800:00−22ene1110091 0.0 101410
03:00−20ene2610096 0.0 101481
06:00−18ene2898100 0.0 1014154
09:00−16ene31193100 0.0 1013257
12:00−15ene3129097 0.0 1012315
15:00−16ne3129256 0.0 1011292
18:00−15ne31290100 0.0 1010318
21:00−14ne31190100 0.0 1009330
29 november, mon
mon2900:00−14ne31193100 0.1 1008377
03:00−13nne31092100 0.1 1008333
06:00−14nne3989100 0.0 1009266
09:00−16n2791100 0.0 1011163
12:00−19n24975 0.0 101367
15:00−24n1110018 0.0 10159
18:00−25nw1110013 0.0 10169
21:00−25e0010039 0.0 10179
30 november, tue
tue3000:00−25e1110074 0.0 10179
03:00−25e1110099 0.0 101619
06:00−23ene27100100 0.0 101495
09:00−19e3139178 0.0 1012261
12:00−16e51781100 0.0 1008476
15:00−15e52075100 0.0 1004624
18:00−12e62076100 0.0 1000724
21:00−11ene62072100 0.0 995792
1 december, wed
wed100:00−10ene61776100 0.0 992801
03:00−10ene61683100 0.0 989786
06:00−10e61487100 0.1 988777
09:00−10ene51391100 0.2 988790
12:00−9e51392100 0.3 989762
15:00−10e51292100 0.6 989616
18:00−10e51293100 0.4 990519
21:00−10e51293100 0.6 990446
2 december, thu
thu200:00−10e41294100 0.4 989420
03:00−10e41195100 0.6 989338
06:00−8ene31095100 0.7 988330
09:00−8e4995100 1.2 988309
12:00−8ene3895100 0.3 987299
15:00−8ene3896100 0.9 987349
18:00−8ne3796100 0.9 988389
21:00−9ne4895100 1.7 989365